Preview of NWS' New Version of Forecast
This preview is not operational and should not be used for support decisions.

Regional Weather Roundup (RWR)

Issued by National Weather Service (NWS)

                            
000
ASUS46 KSEW 181010
RWRWA 

WASHINGTON REGIONAL WEATHER ROUNDUP
NATIONAL WEATHER SERVICE SEATTLE WA
300 AM PDT WED SEP 18 2019

NOTE:"FAIR" INDICATES FEW OR NO CLOUDS BELOW 12,000 FEET WITH NO 
SIGNIFICANT WEATHER AND/OR OBSTRUCTIONS TO VISIBILITY.

WAZ507-509-555>559-181100-
SEATTLE, TACOMA, EVERETT, AND VICINITY
  
CITY           SKY/WX    TMP DP  RH WIND       PRES   REMARKS
EVERETT        CLOUDY    55  53  93 SE3       29.78S                  
BOEING FIELD   CLOUDY    56  54  93 S5        29.77S                  
RENTON         LGT RAIN  56  54  93 CALM      29.77S                  
SEATAC AIRPORT CLOUDY    56  53  90 SE5       29.78R                  
JBLM-MCCHORD   CLOUDY    55  55 100 CALM      29.77R                  
PUYALLUP       CLOUDY    55  55 100 CALM      29.78R                  
BREMERTON      MOCLDY    53  52  96 CALM      29.78R                  
JBLM-FT LEWIS  FOG       55  55 100 CALM      29.77R VSB 3/4          
TACOMA NARROWS CLOUDY    54  54 100 CALM      29.77S                  
$$
 
WAZ001-503-506-510-514-515-181100-
NORTH INTERIOR
  
CITY           SKY/WX    TMP DP  RH WIND       PRES   REMARKS
BELLINGHAM     CLOUDY    56  53  90 CALM      29.78R                  
FRIDAY HARBOR  CLOUDY    56  53  90 CALM      29.78R                  
EASTSOUND      CLOUDY    57  54  88 CALM      29.77S                  
PORT ANGELES   CLOUDY    52  52 100 CALM      29.78R                  
EDIZ HOOK      CLOUDY    52  52 100 CALM      29.77R FOG              
PORT TOWNSEND  CLOUDY    55  54  94 CALM      29.76S                  
NAS WHIDBEY    CLOUDY    58  52  80 CALM      29.81R                  
ARLINGTON      CLOUDY    54  53  97 CALM      29.78S                  
BURLINGTON     CLOUDY    55  54  94 NE6       29.78R                  
$$
 
WAZ020-022-039-040-504-511-512-181100-
SOUTHWEST INTERIOR
  
CITY           SKY/WX    TMP DP  RH WIND       PRES   REMARKS
SHELTON        FOG       56  54  93 CALM      29.75R VSB 3/4          
OLYMPIA        CLOUDY    53  52  96 S3        29.77R                  
CHEHALIS       CLOUDY    55  55 100 CALM      29.77S                  
KELSO          LGT RAIN  58  56  93 SE3       29.77S                  
VANCOUVER      LGT RAIN  57  53  86 CALM      29.78R                  
SCAPPOOSE, OR  LGT RAIN  57  56  96 SE5       29.76S                  
PORTLAND, OR   LGT RAIN  59  55  87 CALM      29.78S                  
$$
 
WAZ021-516-517-181100-
WASHINGTON COAST
  
CITY           SKY/WX    TMP DP  RH WIND       PRES   REMARKS
FORKS          CLOUDY    52  51  97 NE3       29.76R                  
HOQUIAM        MOCLDY    55  55 100 E3        29.76S                  
ASTORIA, OR    LGT RAIN  56  54  93 CALM      29.75R                  
$$
 
WAZ019-023-024-040-567>569-181100-
CASCADE MOUNTAINS AND COLUMBIA GORGE
  
CITY           SKY/WX    TMP DP  RH WIND       PRES   REMARKS
STAMPEDE PASS  NOT AVBL                                               
TROUTDALE, OR  LGT RAIN  58  55  90 NE3       29.79R                  
HOOD RIVER, OR CLOUDY    54  54 100 CALM      29.79S                  
THE DALLES, OR CLOUDY    56  53  90 SW5       29.77S                  
$$

WAZ026-027-041>044-520-521-181100-
EAST SLOPES
  
CITY           SKY/WX    TMP DP  RH WIND       PRES   REMARKS
OMAK           CLOUDY    53  49  86 N9        29.81F                  
WENATCHEE      CLOUDY    52  51  97 CALM      29.78S                  
ELLENSBURG     FOG       53  49  86 N5        29.78R VSB 1            
YAKIMA         LGT RAIN  54  51  90 W3        29.78S                  
SUNNYSIDE ARPT DRIZZLE   54  53  95 N3        29.76F                  
YAKIMA TC      CLOUDY    53  51  92 CALM      29.77R                  
$$

WAZ028-034-035-181100-
COLUMBIA BASIN
  
CITY           SKY/WX    TMP DP  RH WIND       PRES   REMARKS
EPHRATA        CLOUDY    53  51  93 NE8       29.78S                  
MOSES LAKE     CLOUDY    55  50  83 N6        29.79R                  
PASCO          LGT RAIN  57  53  86 CALM      29.78S                  
RICHLAND ARPT  PTSUNNY   58  50  75 N3        29.78R                  
HERMISTON, OR  MOCLDY    56  52  86 SW7       29.79R                  
$$

WAZ036>038-181100-
NORTHEAST WASHINGTON
  
CITY           SKY/WX    TMP DP  RH WIND       PRES   REMARKS
SPOKANE GEIGER MOCLDY    52  46  80 NE5       29.83S                  
SPOKANE FELTS  CLOUDY    55  47  74 CALM      29.84R                  
FAIRCHILD AFB  MOCLDY    50  50 100 NE6       29.82F                  
COEURDALENE,ID CLOUDY    53  44  71 N9        29.84S                  
DEER PARK      CLOUDY    51  46  83 N3        29.85R                  
$$

WAZ029>033-181100-
SOUTHEAST WASHINGTON
  
CITY           SKY/WX    TMP DP  RH WIND       PRES   REMARKS
PULLMAN        CLOUDY    58  40  51 S10       29.84S                  
LEWISTON, ID   CLOUDY    63  43  48 S6        29.81F                  
WALLA WALLA    MOCLDY    58  50  75 NE8       29.77F                  
PENDLETON, OR  CLOUDY    54  47  77 W16       29.80R                  
$$